| time (UTC) | temp F | wind direction | speed MPH | gust MPH | rain 1hr in | rain 24hr in | rain mn in | humidity % | barometer mb |
| 20260505230602 | 54 | 223 | 0.0 | 0.0 | 0.00 | 0.05 | 0.05 | 61 | 1010.4 |
| 20260505230058 | 55 | 222 | 0.0 | 0.0 | 0.00 | 0.05 | 0.05 | 61 | 1010.3 |
| 20260505225555 | 54 | 224 | 0.0 | 0.0 | 0.00 | 0.05 | 0.05 | 61 | 1010.6 |
| 20260505225051 | 54 | 234 | 0.0 | 0.0 | 0.00 | 0.05 | 0.05 | 56 | 1010.3 |
| 20260505224548 | 54 | 222 | 1.0 | 2.0 | 0.00 | 0.05 | 0.05 | 57 | 1010.4 |
| 20260505224045 | 54 | 234 | 1.0 | 1.0 | 0.00 | 0.05 | 0.05 | 59 | 1010.8 |
| 20260505223542 | 54 | 224 | 1.0 | 1.0 | 0.00 | 0.05 | 0.05 | 62 | 1010.5 |
| 20260505223038 | 55 | 219 | 0.0 | 0.0 | 0.00 | 0.05 | 0.05 | 62 | 1010.3 |
| 20260505222535 | 55 | 243 | 0.0 | 0.0 | 0.00 | 0.05 | 0.05 | 59 | 1010.6 |
| 20260505222031 | 54 | 220 | 0.0 | 0.0 | 0.00 | 0.05 | 0.05 | 61 | 1010.7 |
| 20260505221528 | 54 | 224 | 2.0 | 2.0 | 0.00 | 0.05 | 0.05 | 57 | 1010.6 |
| 20260505221025 | 54 | 226 | 2.0 | 2.0 | 0.00 | 0.05 | 0.05 | 55 | 1010.6 |
| 20260505220522 | 54 | 214 | 0.0 | 0.0 | 0.00 | 0.05 | 0.05 | 59 | 1010.8 |
| 20260505220020 | 54 | 292 | 2.0 | 2.0 | 0.00 | 0.05 | 0.05 | 57 | 1010.4 |
| 20260505215518 | 54 | 33 | 2.0 | 5.0 | 0.00 | 0.05 | 0.05 | 56 | 1010.5 |
| 20260505215015 | 54 | 223 | 0.0 | 1.0 | 0.00 | 0.05 | 0.05 | 57 | 1010.7 |
| 20260505214513 | 54 | 247 | 2.0 | 2.0 | 0.00 | 0.05 | 0.05 | 56 | 1010.5 |
| 20260505214010 | 55 | 263 | 3.0 | 5.0 | 0.00 | 0.05 | 0.05 | 55 | 1010.6 |
| 20260505213508 | 55 | 259 | 2.0 | 2.0 | 0.00 | 0.05 | 0.05 | 56 | 1010.4 |
| 20260505213004 | 55 | 220 | 0.0 | 0.0 | 0.00 | 0.05 | 0.05 | 58 | 1010.8 |
| 20260505212500 | 55 | 222 | 1.0 | 1.0 | 0.00 | 0.05 | 0.05 | 58 | 1010.7 |
| 20260505211957 | 55 | 222 | 0.0 | 0.0 | 0.00 | 0.05 | 0.05 | 54 | 1010.7 |
| 20260505211455 | 55 | 243 | 1.0 | 2.0 | 0.00 | 0.05 | 0.05 | 53 | 1010.6 |
| 20260505210951 | 55 | 314 | 4.0 | 6.0 | 0.00 | 0.05 | 0.05 | 51 | 1010.6 |
| 20260505210448 | 55 | 248 | 1.0 | 2.0 | 0.00 | 0.05 | 0.05 | 52 | 1010.4 |
| 20260505205944 | 56 | 224 | 0.0 | 1.0 | 0.00 | 0.05 | 0.05 | 55 | 1010.3 |
| 20260505205443 | 56 | 227 | 1.0 | 1.0 | 0.00 | 0.05 | 0.05 | 54 | 1010.6 |
| 20260505204939 | 56 | 358 | 2.0 | 2.0 | 0.00 | 0.05 | 0.05 | 53 | 1010.6 |
| 20260505204438 | 56 | 225 | 1.0 | 1.0 | 0.00 | 0.05 | 0.05 | 53 | 1010.7 |
| 20260505203934 | 56 | 198 | 3.0 | 3.0 | 0.00 | 0.05 | 0.05 | 56 | 1010.9 |
| 20260505203431 | 56 | 217 | 1.0 | 1.0 | 0.00 | 0.05 | 0.05 | 60 | 1010.7 |
| 20260505202927 | 55 | 231 | 0.0 | 1.0 | 0.00 | 0.05 | 0.05 | 59 | 1011.1 |
| 20260505202424 | 56 | 207 | 2.0 | 2.0 | 0.00 | 0.05 | 0.05 | 60 | 1011.2 |
| 20260505201920 | 55 | 231 | 1.0 | 1.0 | 0.00 | 0.05 | 0.05 | 57 | 1011.2 |
| 20260505201417 | 55 | 217 | 0.0 | 0.0 | 0.00 | 0.05 | 0.05 | 58 | 1011.2 |
| 20260505200915 | 55 | 238 | 1.0 | 1.0 | 0.00 | 0.05 | 0.05 | 57 | 1011.4 |
| 20260505200412 | 54 | 223 | 0.0 | 0.0 | 0.00 | 0.05 | 0.05 | 60 | 1011.4 |
| 20260505195908 | 54 | 281 | 1.0 | 2.0 | 0.00 | 0.05 | 0.05 | 57 | 1011.4 |
| 20260505195405 | 54 | 229 | 0.0 | 1.0 | 0.00 | 0.05 | 0.05 | 57 | 1011.5 |
| 20260505194903 | 54 | 226 | 0.0 | 1.0 | 0.00 | 0.05 | 0.05 | 60 | 1011.5 |
| 20260505194400 | 54 | 223 | 0.0 | 0.0 | 0.00 | 0.05 | 0.05 | 61 | 1011.9 |
| 20260505193855 | 53 | 235 | 1.0 | 1.0 | 0.00 | 0.05 | 0.05 | 61 | 1011.9 |
| 20260505193353 | 53 | 248 | 1.0 | 1.0 | 0.00 | 0.05 | 0.05 | 58 | 1012.0 |
| 20260505192850 | 53 | 230 | 2.0 | 2.0 | 0.00 | 0.05 | 0.05 | 59 | 1011.8 |
| 20260505192348 | 53 | 243 | 2.0 | 3.0 | 0.00 | 0.05 | 0.05 | 60 | 1012.1 |
| 20260505191845 | 53 | 235 | 2.0 | 2.0 | 0.00 | 0.05 | 0.05 | 56 | 1012.0 |
| 20260505191344 | 54 | 226 | 1.0 | 2.0 | 0.00 | 0.05 | 0.05 | 58 | 1011.9 |
| 20260505190840 | 54 | 211 | 0.0 | 0.0 | 0.00 | 0.05 | 0.05 | 61 | 1012.0 |
| 20260505190336 | 53 | 225 | 1.0 | 1.0 | 0.00 | 0.05 | 0.05 | 61 | 1012.0 |
| 20260505185832 | 53 | 233 | 1.0 | 2.0 | 0.00 | 0.05 | 0.05 | 63 | 1012.1 |
| 20260505185328 | 54 | 256 | 2.0 | 2.0 | 0.00 | 0.05 | 0.05 | 59 | 1011.9 |
| 20260505184824 | 53 | 228 | 0.0 | 0.0 | 0.00 | 0.05 | 0.05 | 61 | 1012.1 |
| 20260505184322 | 53 | 231 | 0.0 | 0.0 | 0.00 | 0.05 | 0.05 | 59 | 1012.0 |
| 20260505183819 | 53 | 227 | 0.0 | 0.0 | 0.00 | 0.05 | 0.05 | 66 | 1012.0 |
| 20260505183315 | 52 | 238 | 2.0 | 2.0 | 0.00 | 0.05 | 0.05 | 60 | 1011.8 |
| 20260505182812 | 52 | 230 | 2.0 | 2.0 | 0.00 | 0.05 | 0.05 | 60 | 1012.1 |
| 20260505182309 | 53 | 228 | 2.0 | 3.0 | 0.00 | 0.05 | 0.05 | 62 | 1011.9 |
| 20260505181806 | 53 | 222 | 0.0 | 0.0 | 0.00 | 0.05 | 0.05 | 68 | 1012.2 |
| 20260505181303 | 53 | 228 | 2.0 | 2.0 | 0.00 | 0.05 | 0.05 | 65 | 1012.0 |
| 20260505180800 | 53 | 220 | 0.0 | 0.0 | 0.00 | 0.05 | 0.05 | 66 | 1012.1 |
| 20260505180256 | 53 | 209 | 1.0 | 2.0 | 0.00 | 0.05 | 0.05 | 64 | 1012.0 |
| 20260505175752 | 53 | 178 | 0.0 | 1.0 | 0.00 | 0.05 | 0.05 | 64 | 1012.1 |
| 20260505175249 | 52 | 235 | 2.0 | 2.0 | 0.00 | 0.05 | 0.05 | 63 | 1012.4 |
| 20260505174745 | 52 | 228 | 1.0 | 1.0 | 0.00 | 0.05 | 0.05 | 62 | 1012.3 |
| 20260505174243 | 53 | 222 | 0.0 | 1.0 | 0.00 | 0.05 | 0.05 | 61 | 1012.6 |
| 20260505173739 | 53 | 235 | 1.0 | 1.0 | 0.00 | 0.05 | 0.05 | 59 | 1012.5 |
| 20260505173236 | 53 | 226 | 0.0 | 1.0 | 0.00 | 0.05 | 0.05 | 60 | 1012.6 |
| 20260505172733 | 53 | 241 | 1.0 | 1.0 | 0.00 | 0.05 | 0.05 | 61 | 1012.2 |
| 20260505172230 | 53 | 216 | 0.0 | 0.0 | 0.00 | 0.05 | 0.05 | 61 | 1012.5 |
| 20260505171729 | 53 | 225 | 1.0 | 2.0 | 0.00 | 0.05 | 0.05 | 61 | 1012.4 |
| 20260505171227 | 53 | 230 | 1.0 | 1.0 | 0.00 | 0.05 | 0.05 | 63 | 1012.2 |
| 20260505170723 | 53 | 214 | 0.0 | 0.0 | 0.00 | 0.05 | 0.05 | 65 | 1011.9 |
| 20260505170220 | 53 | 224 | 1.0 | 2.0 | 0.00 | 0.05 | 0.05 | 60 | 1011.7 |
| 20260505165716 | 53 | 302 | 3.0 | 3.0 | 0.00 | 0.05 | 0.05 | 59 | 1011.8 |
| 20260505165212 | 53 | 229 | 1.0 | 1.0 | 0.00 | 0.05 | 0.05 | 63 | 1011.7 |
| 20260505164707 | 53 | 294 | 3.0 | 3.0 | 0.00 | 0.05 | 0.05 | 60 | 1011.9 |
| 20260505164205 | 53 | 199 | 0.0 | 1.0 | 0.00 | 0.05 | 0.05 | 62 | 1011.8 |
| 20260505163703 | 53 | 352 | 2.0 | 2.0 | 0.00 | 0.05 | 0.05 | 59 | 1012.0 |
| 20260505163201 | 53 | 203 | 0.0 | 0.0 | 0.00 | 0.05 | 0.05 | 61 | 1011.8 |
| 20260505162658 | 53 | 202 | 1.0 | 1.0 | 0.00 | 0.05 | 0.05 | 60 | 1011.8 |
| 20260505162155 | 53 | 99 | 3.0 | 7.0 | 0.00 | 0.05 | 0.05 | 57 | 1011.8 |
| 20260505161652 | 53 | 176 | 1.0 | 1.0 | 0.00 | 0.05 | 0.05 | 58 | 1011.4 |
| 20260505161149 | 54 | 231 | 1.0 | 2.0 | 0.00 | 0.05 | 0.05 | 62 | 1011.8 |
| 20260505160647 | 54 | 338 | 2.0 | 3.0 | 0.00 | 0.05 | 0.05 | 60 | 1011.5 |
| 20260505160144 | 54 | 176 | 2.0 | 3.0 | 0.00 | 0.05 | 0.05 | 64 | 1011.7 |
| 20260505153124 | 52 | 232 | 1.0 | 2.0 | 0.00 | 0.05 | 0.05 | 69 | 1011.0 |
| 20260505152620 | 52 | 333 | 4.0 | 5.0 | 0.00 | 0.05 | 0.05 | 68 | 1010.9 |
| 20260505152116 | 52 | 308 | 2.0 | 2.0 | 0.00 | 0.05 | 0.05 | 69 | 1010.5 |
| 20260505151612 | 52 | 294 | 2.0 | 2.0 | 0.00 | 0.05 | 0.05 | 70 | 1010.3 |
| 20260505151109 | 52 | 271 | 2.0 | 2.0 | 0.00 | 0.05 | 0.05 | 71 | 1010.6 |
| 20260505150605 | 52 | 306 | 3.0 | 5.0 | 0.00 | 0.05 | 0.05 | 71 | 1010.2 |
| 20260505140531 | 49 | 241 | 1.0 | 1.0 | 0.00 | 0.05 | 0.05 | 77 | 1010.1 |
| 20260505124944 | 46 | 290 | 3.0 | 5.0 | 0.00 | 0.04 | 0.04 | 90 | 1010.8 |
| 20260505124441 | 46 | 263 | 2.0 | 2.0 | 0.00 | 0.04 | 0.04 | 91 | 1010.8 |
| 20260505123937 | 46 | 224 | 0.0 | 0.0 | 0.00 | 0.04 | 0.04 | 91 | 1010.8 |
| 20260505123434 | 46 | 224 | 0.0 | 0.0 | 0.00 | 0.04 | 0.04 | 91 | 1010.8 |
| 20260505122929 | 46 | 220 | 0.0 | 0.0 | 0.00 | 0.04 | 0.04 | 91 | 1010.9 |
| 20260505122427 | 46 | 231 | 0.0 | 0.0 | 0.00 | 0.04 | 0.04 | 90 | 1011.1 |
| 20260505121924 | 46 | 225 | 0.0 | 1.0 | 0.05 | 0.04 | 0.04 | 89 | 1011.0 |
| 20260505121421 | 46 | 220 | 3.0 | 5.0 | 0.05 | 0.04 | 0.04 | 88 | 1011.0 |
| 20260505120916 | 46 | 214 | 0.0 | 1.0 | 0.07 | 0.03 | 0.03 | 88 | 1011.3 |
| 20260505120413 | 46 | 288 | 2.0 | 2.0 | 0.07 | 0.03 | 0.03 | 86 | 1011.3 |
| 20260505115912 | 47 | 216 | 0.0 | 0.0 | 0.05 | 0.02 | 0.02 | 86 | 1011.4 |
| 20260505115409 | 47 | 221 | 0.0 | 1.0 | 0.05 | 0.02 | 0.02 | 85 | 1011.3 |
| 20260505114907 | 48 | 245 | 1.0 | 1.0 | 0.00 | 0.01 | 0.01 | 82 | 1011.3 |
| 20260505114403 | 48 | 234 | 1.0 | 1.0 | 0.07 | 0.01 | 0.01 | 80 | 1011.4 |
| 20260505113859 | 49 | 224 | 0.0 | 0.0 | 0.07 | 0.01 | 0.01 | 79 | 1011.4 |
| 20260505113356 | 49 | 227 | 0.0 | 1.0 | 0.00 | 0.00 | 0.00 | 77 | 1011.3 |
| 20260505112852 | 50 | 219 | 0.0 | 0.0 | 0.00 | 0.00 | 0.00 | 74 | 1011.5 |
| 20260505112350 | 50 | 241 | 2.0 | 2.0 | 0.00 | 0.00 | 0.00 | 72 | 1011.3 |
| 20260505111845 | 50 | 238 | 3.0 | 3.0 | 0.00 | 0.00 | 0.00 | 71 | 1011.1 |
| 20260505111340 | 51 | 245 | 3.0 | 3.0 | 0.00 | 0.00 | 0.00 | 70 | 1010.7 |
| 20260505110837 | 51 | 242 | 2.0 | 3.0 | 0.00 | 0.00 | 0.00 | 67 | 1010.3 |
| 20260505110334 | 51 | 242 | 2.0 | 2.0 | 0.00 | 0.00 | 0.00 | 68 | 1009.6 |
| 20260505101809 | 52 | 222 | 2.0 | 2.0 | 0.00 | 0.00 | 0.00 | 63 | 1009.6 |
| 20260505101305 | 52 | 348 | 2.0 | 2.0 | 0.00 | 0.00 | 0.00 | 62 | 1009.5 |
| 20260505100801 | 52 | 216 | 0.0 | 0.0 | 0.00 | 0.00 | 0.00 | 66 | 1009.6 |
| 20260505100258 | 52 | 294 | 1.0 | 2.0 | 0.00 | 0.00 | 0.00 | 64 | 1009.6 |
| 20260505095753 | 52 | 267 | 1.0 | 2.0 | 0.00 | 0.00 | 0.00 | 61 | 1009.6 |
| 20260505095251 | 52 | 216 | 1.0 | 1.0 | 0.00 | 0.00 | 0.00 | 62 | 1009.5 |
| 20260505094746 | 53 | 222 | 1.0 | 1.0 | 0.00 | 0.00 | 0.00 | 62 | 1009.3 |
| 20260505094244 | 53 | 224 | 0.0 | 0.0 | 0.00 | 0.00 | 0.00 | 64 | 1009.6 |
| 20260505093739 | 53 | 222 | 1.0 | 1.0 | 0.00 | 0.00 | 0.00 | 65 | 1009.3 |
| 20260505093237 | 53 | 268 | 0.0 | 1.0 | 0.00 | 0.00 | 0.00 | 63 | 1009.0 |
| 20260505092734 | 53 | 263 | 2.0 | 2.0 | 0.00 | 0.00 | 0.00 | 62 | 1008.6 |
| 20260505092233 | 53 | 295 | 2.0 | 2.0 | 0.00 | 0.00 | 0.00 | 60 | 1008.6 |
| 20260505091729 | 53 | 218 | 0.0 | 0.0 | 0.00 | 0.00 | 0.00 | 62 | 1008.4 |
| 20260505091228 | 53 | 74 | 0.0 | 1.0 | 0.00 | 0.00 | 0.00 | 65 | 1008.4 |
| 20260505090725 | 53 | 298 | 4.0 | 7.0 | 0.00 | 0.00 | 0.00 | 60 | 1008.6 |
| 20260505090223 | 53 | 205 | 3.0 | 5.0 | 0.00 | 0.00 | 0.00 | 61 | 1008.4 |
| 20260505085720 | 53 | 317 | 4.0 | 5.0 | 0.00 | 0.00 | 0.00 | 60 | 1008.5 |
| 20260505085218 | 54 | 230 | 2.0 | 2.0 | 0.00 | 0.00 | 0.00 | 63 | 1008.3 |
| 20260505084715 | 54 | 279 | 1.0 | 2.0 | 0.00 | 0.00 | 0.00 | 60 | 1007.8 |
| 20260505084214 | 54 | 248 | 2.0 | 2.0 | 0.00 | 0.00 | 0.00 | 61 | 1007.9 |
| 20260505083710 | 54 | 252 | 3.0 | 3.0 | 0.00 | 0.00 | 0.00 | 61 | 1008.0 |
| 20260505083208 | 54 | 243 | 1.0 | 1.0 | 0.00 | 0.00 | 0.00 | 62 | 1007.9 |
| 20260505082703 | 54 | 228 | 3.0 | 3.0 | 0.00 | 0.00 | 0.00 | 62 | 1008.2 |
| 20260505082201 | 55 | 310 | 3.0 | 5.0 | 0.00 | 0.00 | 0.00 | 62 | 1007.9 |
| 20260505081656 | 55 | 280 | 2.0 | 2.0 | 0.00 | 0.00 | 0.00 | 62 | 1008.0 |
| 20260505081154 | 55 | 213 | 1.0 | 2.0 | 0.00 | 0.00 | 0.00 | 60 | 1007.8 |
| 20260505080651 | 55 | 236 | 1.0 | 1.0 | 0.00 | 0.00 | 0.00 | 63 | 1007.4 |
| 20260505080147 | 55 | 303 | 3.0 | 3.0 | 0.00 | 0.00 | 0.00 | 59 | 1007.5 |
| 20260505075643 | 55 | 347 | 1.0 | 2.0 | 0.00 | 0.00 | 0.00 | 63 | 1007.6 |
| 20260505075140 | 55 | 216 | 0.0 | 1.0 | 0.00 | 0.00 | 0.00 | 62 | 1007.4 |
| 20260505074637 | 55 | 341 | 1.0 | 2.0 | 0.00 | 0.00 | 0.00 | 62 | 1007.3 |
| 20260505074134 | 54 | 251 | 1.0 | 1.0 | 0.00 | 0.00 | 0.00 | 61 | 1006.9 |
| 20260505073632 | 54 | 222 | 0.0 | 0.0 | 0.00 | 0.00 | 0.00 | 65 | 1006.9 |
| 20260505073130 | 54 | 222 | 0.0 | 0.0 | 0.00 | 0.00 | 0.00 | 64 | 1006.7 |
| 20260505072624 | 53 | 228 | 0.0 | 0.0 | 0.00 | 0.00 | 0.00 | 67 | 1006.6 |
| 20260505072121 | 54 | 226 | 0.0 | 0.0 | 0.00 | 0.00 | 0.00 | 68 | 1006.4 |
| 20260505071617 | 54 | 221 | 1.0 | 2.0 | 0.00 | 0.00 | 0.00 | 64 | 1006.4 |
| 20260505071115 | 53 | 227 | 1.0 | 1.0 | 0.00 | 0.00 | 0.00 | 67 | 1006.4 |
| 20260505070612 | 54 | 218 | 0.0 | 0.0 | 0.00 | 0.00 | 0.00 | 70 | 1006.1 |
| 20260505070108 | 54 | 213 | 0.0 | 0.0 | 0.00 | 0.00 | 0.00 | 66 | 1006.3 |
| 20260505065604 | 54 | 221 | 0.0 | 0.0 | 0.00 | 0.00 | 0.00 | 68 | 1006.0 |
| 20260505065101 | 54 | 242 | 1.0 | 1.0 | 0.00 | 0.00 | 0.00 | 67 | 1005.9 |
| 20260505064558 | 55 | 220 | 0.0 | 0.0 | 0.00 | 0.00 | 0.00 | 69 | 1005.9 |
| 20260505064057 | 55 | 226 | 0.0 | 0.0 | 0.00 | 0.00 | 0.00 | 71 | 1005.9 |
| 20260505063553 | 55 | 226 | 0.0 | 0.0 | 0.00 | 0.00 | 0.00 | 71 | 1005.7 |
| 20260505063049 | 55 | 227 | 0.0 | 0.0 | 0.00 | 0.00 | 0.00 | 72 | 1005.5 |
| 20260505062546 | 55 | 260 | 1.0 | 1.0 | 0.00 | 0.00 | 0.00 | 75 | 1005.3 |
| 20260505062043 | 54 | 274 | 2.0 | 2.0 | 0.00 | 0.00 | 0.00 | 79 | 1005.6 |
| 20260505061540 | 53 | 223 | 0.0 | 0.0 | 0.00 | 0.00 | 0.00 | 83 | 1005.6 |
| 20260505061038 | 53 | 232 | 1.0 | 1.0 | 0.00 | 0.00 | 0.00 | 87 | 1005.5 |
| 20260505060536 | 53 | 221 | 0.0 | 0.0 | 0.00 | 0.00 | 0.00 | 85 | 1005.5 |
| 20260505060032 | 52 | 219 | 0.0 | 0.0 | 0.00 | 0.00 | 0.00 | 90 | 1005.3 |
| 20260505055527 | 52 | 226 | 0.0 | 0.0 | 0.00 | 0.00 | 0.00 | 95 | 1005.3 |
| 20260505055024 | 53 | 221 | 0.0 | 0.0 | 0.00 | 0.00 | 0.00 | 97 | 1005.0 |
| 20260505054521 | 53 | 217 | 0.0 | 0.0 | 0.00 | 0.00 | 0.00 | 97 | 1004.9 |
| 20260505054020 | 53 | 212 | 0.0 | 0.0 | 0.00 | 0.00 | 0.00 | 95 | 1005.3 |
| 20260505053517 | 54 | 222 | 0.0 | 0.0 | 0.00 | 0.00 | 0.00 | 95 | 1005.2 |
| 20260505053013 | 54 | 224 | 0.0 | 0.0 | 0.00 | 0.00 | 0.00 | 96 | 1004.8 |
| 20260505052510 | 54 | 211 | 0.0 | 0.0 | 0.00 | 0.00 | 0.00 | 96 | 1004.9 |
| 20260505052008 | 54 | 224 | 0.0 | 0.0 | 0.00 | 0.00 | 0.00 | 93 | 1004.4 |
| 20260505051504 | 54 | 209 | 0.0 | 0.0 | 0.00 | 0.00 | 0.00 | 95 | 1004.3 |
| 20260505051003 | 54 | 219 | 0.0 | 0.0 | 0.00 | 0.00 | 0.00 | 97 | 1004.2 |
| 20260505050500 | 54 | 218 | 0.0 | 0.0 | 0.00 | 0.00 | 0.00 | 97 | 1004.1 |
| 20260505041428 | 56 | 225 | 0.0 | 0.0 | 0.00 | 0.47 | 0.47 | 99 | 1003.6 |
| 20260505040925 | 57 | 227 | 1.0 | 1.0 | 0.00 | 0.47 | 0.47 | 99 | 1003.3 |
| 20260505040423 | 57 | 232 | 1.0 | 2.0 | 0.00 | 0.47 | 0.47 | 99 | 1003.1 |
| 20260505035919 | 58 | 321 | 3.0 | 3.0 | 0.00 | 0.47 | 0.47 | 99 | 1002.5 |
| 20260505035415 | 58 | 225 | 0.0 | 0.0 | 0.00 | 0.47 | 0.47 | 99 | 1002.7 |
| 20260505034913 | 58 | 224 | 0.0 | 0.0 | 0.00 | 0.47 | 0.47 | 99 | 1003.1 |
| 20260505034409 | 58 | 224 | 2.0 | 3.0 | 0.00 | 0.47 | 0.47 | 99 | 1002.9 |
| 20260505033906 | 58 | 225 | 0.0 | 0.0 | 0.00 | 0.47 | 0.47 | 99 | 1002.3 |
| 20260505033403 | 58 | 223 | 0.0 | 0.0 | 0.00 | 0.47 | 0.47 | 99 | 1002.3 |
| 20260505032901 | 58 | 247 | 1.0 | 1.0 | 0.00 | 0.47 | 0.47 | 99 | 1002.1 |
| 20260505032357 | 58 | 230 | 2.0 | 2.0 | 0.00 | 0.47 | 0.47 | 99 | 1002.1 |
| 20260505031854 | 58 | 216 | 0.0 | 0.0 | 0.12 | 0.47 | 0.47 | 99 | 1001.9 |
| 20260505031351 | 58 | 221 | 0.0 | 0.0 | 0.66 | 0.47 | 0.47 | 99 | 1002.1 |
| 20260505030848 | 59 | 214 | 1.0 | 1.0 | 0.90 | 0.45 | 0.45 | 99 | 1002.4 |
| 20260505030344 | 59 | 215 | 0.0 | 0.0 | 0.54 | 0.37 | 0.37 | 99 | 1003.2 |
| 20260505025840 | 59 | 234 | 2.0 | 2.0 | 0.59 | 0.30 | 0.30 | 97 | 1002.6 |
| 20260505025337 | 60 | 173 | 1.0 | 2.0 | 0.71 | 0.28 | 0.28 | 96 | 1002.3 |
| 20260505024836 | 60 | 175 | 1.0 | 1.0 | 0.66 | 0.21 | 0.21 | 94 | 1003.0 |
| 20260505024333 | 61 | 243 | 3.0 | 3.0 | 0.97 | 0.16 | 0.16 | 91 | 1002.6 |
| 20260505023830 | 65 | 42 | 2.0 | 2.0 | 0.54 | 0.09 | 0.09 | 82 | 1002.9 |
| 20260505023327 | 68 | 244 | 4.0 | 6.0 | 0.00 | 0.00 | 0.00 | 62 | 1003.2 |
| 20260505022824 | 68 | 277 | 2.0 | 2.0 | 0.00 | 0.00 | 0.00 | 59 | 1001.6 |
| 20260505022321 | 68 | 124 | 2.0 | 2.0 | 0.00 | 0.00 | 0.00 | 58 | 1002.0 |
| 20260505021819 | 69 | 276 | 2.0 | 2.0 | 0.00 | 0.00 | 0.00 | 57 | 1001.8 |
| 20260505021315 | 69 | 302 | 3.0 | 5.0 | 0.00 | 0.00 | 0.00 | 57 | 1002.4 |
| 20260505020811 | 69 | 281 | 2.0 | 3.0 | 0.00 | 0.00 | 0.00 | 56 | 1002.0 |
| 20260505020307 | 70 | 345 | 5.0 | 6.0 | 0.00 | 0.00 | 0.00 | 56 | 1002.0 |
| 20260505015804 | 70 | 273 | 2.0 | 2.0 | 0.00 | 0.00 | 0.00 | 60 | 1001.9 |
| 20260505015301 | 69 | 233 | 2.0 | 3.0 | 0.00 | 0.00 | 0.00 | 72 | 1001.8 |
| 20260505014758 | 71 | 256 | 2.0 | 2.0 | 0.00 | 0.00 | 0.00 | 71 | 1001.4 |
| 20260505014255 | 71 | 217 | 0.0 | 0.0 | 0.00 | 0.00 | 0.00 | 69 | 1001.3 |
| 20260505013751 | 71 | 216 | 0.0 | 0.0 | 0.00 | 0.00 | 0.00 | 69 | 1001.2 |
| 20260505013249 | 71 | 212 | 0.0 | 0.0 | 0.00 | 0.00 | 0.00 | 68 | 1001.0 |
| 20260505012747 | 72 | 216 | 0.0 | 0.0 | 0.00 | 0.00 | 0.00 | 68 | 1001.1 |
| 20260505012244 | 72 | 218 | 0.0 | 0.0 | 0.00 | 0.00 | 0.00 | 67 | 1001.0 |
| 20260505011739 | 72 | 208 | 0.0 | 1.0 | 0.00 | 0.00 | 0.00 | 66 | 1000.9 |
| 20260505011237 | 73 | 216 | 0.0 | 0.0 | 0.00 | 0.00 | 0.00 | 64 | 1000.9 |
| 20260505010732 | 73 | 223 | 2.0 | 2.0 | 0.00 | 0.00 | 0.00 | 62 | 1000.5 |
| 20260505010229 | 73 | 218 | 0.0 | 0.0 | 0.00 | 0.00 | 0.00 | 60 | 1000.6 |
| 20260505005725 | 73 | 220 | 1.0 | 2.0 | 0.00 | 0.00 | 0.00 | 57 | 1000.4 |
| 20260505005223 | 73 | 208 | 0.0 | 0.0 | 0.00 | 0.00 | 0.00 | 57 | 1000.4 |
| 20260505004720 | 74 | 208 | 0.0 | 0.0 | 0.00 | 0.00 | 0.00 | 57 | 1000.3 |
| 20260505004216 | 74 | 229 | 1.0 | 1.0 | 0.00 | 0.00 | 0.00 | 57 | 1000.3 |
| 20260505003713 | 74 | 218 | 0.0 | 0.0 | 0.00 | 0.00 | 0.00 | 56 | 1000.2 |
| 20260505003211 | 74 | 206 | 0.0 | 0.0 | 0.00 | 0.00 | 0.00 | 55 | 1000.0 |
| 20260505002707 | 74 | 218 | 0.0 | 1.0 | 0.00 | 0.00 | 0.00 | 55 | 1000.2 |
| 20260505002205 | 75 | 205 | 2.0 | 2.0 | 0.00 | 0.00 | 0.00 | 54 | 1000.2 |
| 20260505001702 | 75 | 222 | 0.0 | 0.0 | 0.00 | 0.00 | 0.00 | 54 | 1000.0 |
| 20260505001159 | 75 | 221 | 0.0 | 0.0 | 0.00 | 0.00 | 0.00 | 54 | 1000.1 |
| 20260505000656 | 76 | 237 | 1.0 | 3.0 | 0.00 | 0.00 | 0.00 | 52 | 1000.1 |
| 20260505000154 | 77 | 205 | 2.0 | 3.0 | 0.00 | 0.00 | 0.00 | 51 | 1000.2 |
| 20260504235650 | 77 | 223 | 1.0 | 2.0 | 0.00 | 0.00 | 0.00 | 51 | 1000.2 |
| 20260504235147 | 77 | 217 | 0.0 | 0.0 | 0.00 | 0.00 | 0.00 | 52 | 1000.3 |
| 20260504234644 | 77 | 202 | 2.0 | 3.0 | 0.00 | 0.00 | 0.00 | 50 | 1000.2 |
| 20260504234141 | 78 | 222 | 2.0 | 2.0 | 0.00 | 0.00 | 0.00 | 50 | 1000.5 |
| 20260504233637 | 78 | 208 | 2.0 | 2.0 | 0.00 | 0.00 | 0.00 | 50 | 1000.2 |
| 20260504233133 | 78 | 206 | 1.0 | 1.0 | 0.00 | 0.00 | 0.00 | 49 | 1000.2 |
| 20260504232631 | 78 | 215 | 1.0 | 1.0 | 0.00 | 0.00 | 0.00 | 48 | 1000.2 |
| 20260504232128 | 78 | 185 | 4.0 | 7.0 | 0.00 | 0.00 | 0.00 | 48 | 1000.4 |
| 20260504231624 | 78 | 219 | 3.0 | 3.0 | 0.00 | 0.00 | 0.00 | 48 | 1000.1 |
| 20260504231121 | 78 | 212 | 3.0 | 5.0 | 0.00 | 0.00 | 0.00 | 48 | 1000.3 |